Time,TemperatureF,DewpointF,PressureIn,WindDirection,WindDirectionDegrees,WindSpeedMPH,WindSpeedGustMPH,Humidity,HourlyPrecipIn,Conditions,Clouds,dailyrainin,SolarRadiationWatts/m^2,SoftwareType,DateUTC
2013-11-21 00:04:00,51.1,49.5,30.03,SW,221,1.0,6.0,94,0.00,,,0.00,0.0,meteohub,2013-11-21 08:04:00,
2013-11-21 00:09:00,51.1,49.5,30.03,SW,221,1.0,6.0,94,0.00,,,0.00,0.0,meteohub,2013-11-21 08:09:00,
2013-11-21 00:14:00,51.1,49.5,30.03,SW,221,1.0,4.0,94,0.00,,,0.00,0.0,meteohub,2013-11-21 08:14:00,
2013-11-21 00:19:00,51.1,49.5,30.03,SW,225,1.0,4.0,94,0.00,,,0.00,0.0,meteohub,2013-11-21 08:19:00,
2013-11-21 00:24:00,51.1,49.5,30.03,WSW,240,1.0,5.0,94,0.00,,,0.00,0.0,meteohub,2013-11-21 08:24:00,
2013-11-21 00:29:00,51.1,49.5,30.03,WSW,240,1.0,5.0,94,0.00,,,0.00,0.0,meteohub,2013-11-21 08:29:00,
2013-11-21 00:34:00,51.3,49.6,30.03,WSW,243,1.0,5.0,94,0.00,,,0.00,0.0,meteohub,2013-11-21 08:34:00,
2013-11-21 00:39:00,51.3,49.6,30.03,WSW,257,1.0,4.0,94,0.00,,,0.00,0.0,meteohub,2013-11-21 08:39:00,
2013-11-21 00:44:00,51.1,49.5,30.03,WSW,246,0.0,5.0,94,0.00,,,0.00,0.0,meteohub,2013-11-21 08:44:00,
2013-11-21 00:49:00,51.1,49.5,30.03,WSW,246,1.0,5.0,94,0.00,,,0.00,0.0,meteohub,2013-11-21 08:49:00,
2013-11-21 00:54:00,50.9,49.3,30.03,WSW,246,1.0,5.0,94,0.00,,,0.00,0.0,meteohub,2013-11-21 08:54:00,
2013-11-21 00:59:00,50.9,49.3,30.03,WSW,246,1.0,2.0,94,0.00,,,0.00,0.0,meteohub,2013-11-21 08:59:00,
2013-11-21 01:04:00,50.7,49.1,30.03,WSW,246,1.0,2.0,94,0.00,,,0.00,0.0,meteohub,2013-11-21 09:04:00,
2013-11-21 01:09:00,50.7,49.1,30.03,WSW,254,0.0,3.0,94,0.00,,,0.00,0.0,meteohub,2013-11-21 09:09:00,
2013-11-21 01:14:00,50.5,48.9,30.02,WSW,242,0.0,3.0,94,0.00,,,0.00,0.0,meteohub,2013-11-21 09:14:00,
2013-11-21 01:19:00,50.5,48.9,30.03,WSW,247,0.0,3.0,94,0.00,,,0.00,0.0,meteohub,2013-11-21 09:19:00,
2013-11-21 01:24:00,50.5,48.9,30.03,WSW,241,0.0,3.0,94,0.00,,,0.00,0.0,meteohub,2013-11-21 09:24:00,
2013-11-21 01:29:00,50.5,48.9,30.03,WSW,241,0.0,5.0,94,0.00,,,0.00,0.0,meteohub,2013-11-21 09:29:00,
2013-11-21 01:34:00,50.4,48.7,30.03,WSW,241,0.0,5.0,94,0.00,,,0.00,0.0,meteohub,2013-11-21 09:34:00,
2013-11-21 01:39:00,50.5,48.9,30.04,WSW,241,0.0,1.0,94,0.00,,,0.00,0.0,meteohub,2013-11-21 09:39:00,
2013-11-21 01:44:00,50.5,48.9,30.04,WSW,241,1.0,2.0,94,0.00,,,0.00,0.0,meteohub,2013-11-21 09:44:00,
2013-11-21 01:49:00,50.4,48.7,30.04,WSW,241,0.0,2.0,94,0.00,,,0.00,0.0,meteohub,2013-11-21 09:49:00,
2013-11-21 01:54:00,50.4,48.7,30.04,WSW,241,0.0,2.0,94,0.00,,,0.00,0.0,meteohub,2013-11-21 09:54:00,
2013-11-21 01:59:00,50.5,48.9,30.04,WSW,241,0.0,1.0,94,0.00,,,0.00,0.0,meteohub,2013-11-21 09:59:00,
2013-11-21 02:04:00,50.5,48.9,30.04,WSW,241,0.0,1.0,94,0.00,,,0.00,0.0,meteohub,2013-11-21 10:04:00,
2013-11-21 02:10:00,50.5,48.9,30.04,WSW,241,0.0,2.0,94,0.00,,,0.00,0.0,meteohub,2013-11-21 10:10:00,
2013-11-21 02:15:00,50.4,48.7,30.04,SW,216,0.0,2.0,94,0.00,,,0.00,0.0,meteohub,2013-11-21 10:15:00,
2013-11-21 02:20:00,50.4,48.7,30.04,WSW,246,0.0,2.0,94,0.00,,,0.00,0.0,meteohub,2013-11-21 10:20:00,
2013-11-21 02:25:00,50.4,48.7,30.04,WSW,246,0.0,2.0,94,0.01,,,0.01,0.0,meteohub,2013-11-21 10:25:00,
2013-11-21 02:30:00,50.4,48.7,30.04,West,261,0.0,2.0,94,0.01,,,0.01,0.0,meteohub,2013-11-21 10:30:00,
2013-11-21 02:35:00,50.4,48.7,30.05,West,261,0.0,2.0,94,0.01,,,0.01,0.0,meteohub,2013-11-21 10:35:00,
2013-11-21 02:40:00,50.4,48.7,30.04,West,261,1.0,2.0,94,0.01,,,0.01,0.0,meteohub,2013-11-21 10:40:00,
2013-11-21 02:45:00,50.4,48.7,30.05,West,261,0.0,2.0,94,0.02,,,0.02,0.0,meteohub,2013-11-21 10:45:00,
2013-11-21 02:50:00,50.4,48.7,30.05,West,261,0.0,2.0,94,0.02,,,0.02,0.0,meteohub,2013-11-21 10:50:00,
2013-11-21 02:55:00,50.4,48.7,30.05,West,261,0.0,1.0,94,0.02,,,0.02,0.0,meteohub,2013-11-21 10:55:00,
2013-11-21 03:00:00,50.4,48.7,30.05,West,261,0.0,1.0,94,0.02,,,0.02,0.0,meteohub,2013-11-21 11:00:00,
2013-11-21 03:05:00,50.4,48.7,30.04,West,261,0.0,1.0,94,0.02,,,0.02,0.0,meteohub,2013-11-21 11:05:00,
2013-11-21 03:10:00,50.4,48.7,30.04,West,261,0.0,1.0,94,0.02,,,0.02,0.0,meteohub,2013-11-21 11:10:00,
2013-11-21 03:15:00,50.4,48.7,30.05,West,261,0.0,1.0,94,0.02,,,0.02,0.0,meteohub,2013-11-21 11:15:00,
2013-11-21 03:20:00,50.4,48.7,30.05,West,260,0.0,2.0,94,0.02,,,0.03,0.0,meteohub,2013-11-21 11:20:00,
2013-11-21 03:25:00,50.4,48.7,30.04,West,260,0.0,2.0,94,0.02,,,0.03,0.0,meteohub,2013-11-21 11:25:00,
2013-11-21 03:30:00,50.4,48.7,30.05,West,260,0.0,2.0,94,0.02,,,0.03,0.0,meteohub,2013-11-21 11:30:00,
2013-11-21 03:35:00,50.4,48.7,30.05,West,260,0.0,1.0,94,0.02,,,0.03,0.0,meteohub,2013-11-21 11:35:00,
2013-11-21 03:41:00,50.4,48.7,30.05,West,260,0.0,1.0,94,0.03,,,0.04,0.0,meteohub,2013-11-21 11:41:00,
2013-11-21 03:46:00,50.4,48.7,30.05,West,260,0.0,1.0,94,0.02,,,0.04,0.0,meteohub,2013-11-21 11:46:00,
2013-11-21 03:51:00,50.4,48.7,30.05,West,260,0.0,0.0,94,0.02,,,0.04,0.0,meteohub,2013-11-21 11:51:00,
2013-11-21 03:56:00,50.4,48.7,30.05,West,260,0.0,0.0,94,0.02,,,0.04,0.0,meteohub,2013-11-21 11:56:00,
2013-11-21 04:01:00,50.4,48.7,30.05,West,259,0.0,2.0,94,0.03,,,0.05,0.0,meteohub,2013-11-21 12:01:00,
2013-11-21 04:06:00,50.4,48.7,30.05,West,259,0.0,2.0,94,0.03,,,0.05,0.0,meteohub,2013-11-21 12:06:00,
2013-11-21 04:11:00,50.2,48.6,30.05,West,259,0.0,2.0,94,0.03,,,0.05,0.0,meteohub,2013-11-21 12:11:00,
2013-11-21 04:16:00,50.2,48.6,30.05,West,259,0.0,1.0,94,0.02,,,0.05,0.0,meteohub,2013-11-21 12:16:00,
2013-11-21 04:21:00,50.2,48.6,30.05,West,259,0.0,1.0,94,0.02,,,0.05,0.0,meteohub,2013-11-21 12:21:00,
2013-11-21 04:26:00,50.2,48.6,30.05,West,259,0.0,1.0,94,0.02,,,0.05,0.0,meteohub,2013-11-21 12:26:00,
2013-11-21 04:31:00,50.2,48.6,30.05,West,259,0.0,0.0,94,0.02,,,0.05,0.0,meteohub,2013-11-21 12:31:00,
2013-11-21 04:36:00,50.2,48.6,30.05,West,259,0.0,1.0,94,0.02,,,0.05,0.0,meteohub,2013-11-21 12:36:00,
2013-11-21 04:41:00,50.2,48.6,30.05,West,259,0.0,1.0,94,0.02,,,0.06,0.0,meteohub,2013-11-21 12:41:00,
2013-11-21 04:46:00,50.2,48.6,30.06,West,259,0.0,1.0,94,0.02,,,0.06,0.0,meteohub,2013-11-21 12:46:00,
2013-11-21 04:51:00,50.2,48.6,30.06,West,259,0.0,0.0,94,0.02,,,0.06,0.0,meteohub,2013-11-21 12:51:00,
2013-11-21 04:56:00,50.2,48.7,30.06,West,259,0.0,0.0,95,0.01,,,0.06,0.0,meteohub,2013-11-21 12:56:00,
2013-11-21 05:01:00,50.2,48.7,30.06,West,259,0.0,0.0,95,0.01,,,0.06,0.0,meteohub,2013-11-21 13:01:00,
2013-11-21 05:06:00,50.0,48.6,30.06,West,260,0.0,1.0,95,0.01,,,0.06,0.0,meteohub,2013-11-21 13:06:00,
2013-11-21 05:11:00,49.8,48.2,30.06,ENE,71,2.0,3.0,94,0.01,,,0.06,0.0,meteohub,2013-11-21 13:11:00,
2013-11-21 05:16:00,49.6,48.0,30.06,ENE,71,1.0,3.0,94,0.02,,,0.07,0.0,meteohub,2013-11-21 13:16:00,
2013-11-21 05:21:00,49.5,47.8,30.06,ENE,71,0.0,3.0,94,0.02,,,0.07,0.0,meteohub,2013-11-21 13:21:00,
2013-11-21 05:26:00,49.3,47.7,30.06,ENE,71,1.0,3.0,94,0.02,,,0.07,0.0,meteohub,2013-11-21 13:26:00,
2013-11-21 05:31:00,49.3,47.7,30.06,ENE,71,1.0,3.0,94,0.03,,,0.08,0.0,meteohub,2013-11-21 13:31:00,
2013-11-21 05:36:00,49.3,47.8,30.07,ENE,71,0.0,2.0,95,0.03,,,0.08,0.0,meteohub,2013-11-21 13:36:00,
2013-11-21 05:42:00,49.3,47.8,30.07,ENE,71,1.0,2.0,95,0.02,,,0.08,0.0,meteohub,2013-11-21 13:42:00,
2013-11-21 05:47:00,49.3,47.8,30.07,ENE,71,1.0,2.0,95,0.02,,,0.08,0.0,meteohub,2013-11-21 13:47:00,
2013-11-21 05:52:00,49.3,47.7,30.07,ENE,71,1.0,2.0,94,0.02,,,0.08,0.0,meteohub,2013-11-21 13:52:00,
2013-11-21 05:57:00,49.1,47.7,30.07,ENE,71,1.0,2.0,95,0.02,,,0.08,0.0,meteohub,2013-11-21 13:57:00,
2013-11-21 06:02:00,49.1,47.5,30.07,ENE,71,0.0,2.0,94,0.02,,,0.08,0.0,meteohub,2013-11-21 14:02:00,
2013-11-21 06:07:00,49.1,47.5,30.07,ENE,71,0.0,2.0,94,0.02,,,0.08,0.0,meteohub,2013-11-21 14:07:00,
2013-11-21 06:12:00,49.1,47.5,30.07,ENE,71,1.0,1.0,94,0.02,,,0.08,0.0,meteohub,2013-11-21 14:12:00,
2013-11-21 06:17:00,48.9,47.3,30.08,ENE,71,0.0,2.0,94,0.01,,,0.08,0.0,meteohub,2013-11-21 14:17:00,
2013-11-21 06:22:00,48.9,47.3,30.08,ENE,71,0.0,2.0,94,0.01,,,0.08,0.0,meteohub,2013-11-21 14:22:00,
2013-11-21 06:27:00,48.9,47.3,30.08,ENE,71,0.0,2.0,94,0.00,,,0.08,0.0,meteohub,2013-11-21 14:27:00,
2013-11-21 06:32:00,48.9,47.3,30.08,ENE,71,0.0,1.0,94,0.00,,,0.08,0.0,meteohub,2013-11-21 14:32:00,
2013-11-21 06:37:00,48.9,47.3,30.08,ENE,71,0.0,1.0,94,0.00,,,0.08,0.0,meteohub,2013-11-21 14:37:00,
2013-11-21 06:42:00,48.9,47.3,30.08,ENE,71,0.0,0.0,94,0.00,,,0.08,0.0,meteohub,2013-11-21 14:42:00,
2013-11-21 06:47:00,49.1,47.5,30.08,ENE,71,0.0,0.0,94,0.00,,,0.08,0.0,meteohub,2013-11-21 14:47:00,
2013-11-21 06:52:00,48.9,47.3,30.08,ENE,71,1.0,1.0,94,0.00,,,0.08,0.0,meteohub,2013-11-21 14:52:00,
2013-11-21 06:57:00,49.1,47.5,30.08,ENE,71,0.0,1.0,94,0.00,,,0.08,0.0,meteohub,2013-11-21 14:57:00,
2013-11-21 07:02:00,49.1,47.5,30.09,ENE,71,0.0,1.0,94,0.00,,,0.08,0.0,meteohub,2013-11-21 15:02:00,
2013-11-21 07:07:00,49.1,47.5,30.09,ENE,71,0.0,1.0,94,0.00,,,0.08,0.0,meteohub,2013-11-21 15:07:00,
2013-11-21 07:12:00,49.3,47.7,30.09,ENE,71,0.0,0.0,94,0.00,,,0.08,0.0,meteohub,2013-11-21 15:12:00,
2013-11-21 07:17:00,49.3,47.7,30.09,ENE,71,0.0,0.0,94,0.00,,,0.08,5.0,meteohub,2013-11-21 15:17:00,
2013-11-21 07:22:00,49.3,47.8,30.09,ENE,71,0.0,0.0,95,0.00,,,0.08,9.0,meteohub,2013-11-21 15:22:00,
2013-11-21 07:27:00,49.3,47.8,30.09,ENE,71,0.0,1.0,95,0.00,,,0.08,14.0,meteohub,2013-11-21 15:27:00,
2013-11-21 07:32:00,49.3,47.7,30.09,ENE,71,0.0,1.0,94,0.00,,,0.08,19.0,meteohub,2013-11-21 15:32:00,
2013-11-21 07:37:00,49.3,47.7,30.09,ENE,71,0.0,1.0,94,0.00,,,0.08,21.0,meteohub,2013-11-21 15:37:00,
2013-11-21 07:42:00,49.3,47.8,30.09,ENE,71,0.0,0.0,95,0.00,,,0.08,18.0,meteohub,2013-11-21 15:42:00,
2013-11-21 07:47:00,49.5,48.0,30.09,ENE,71,0.0,0.0,95,0.00,,,0.08,16.0,meteohub,2013-11-21 15:47:00,
2013-11-21 07:52:00,49.5,48.0,30.09,ENE,71,0.0,0.0,95,0.00,,,0.08,21.0,meteohub,2013-11-21 15:52:00,
2013-11-21 07:57:00,49.5,48.0,30.09,ENE,71,0.0,0.0,95,0.00,,,0.08,21.0,meteohub,2013-11-21 15:57:00,
2013-11-21 08:02:00,49.5,48.0,30.09,ENE,71,0.0,0.0,95,0.00,,,0.08,28.0,meteohub,2013-11-21 16:02:00,
2013-11-21 08:07:00,49.5,48.0,30.09,ENE,71,0.0,1.0,95,0.00,,,0.08,28.0,meteohub,2013-11-21 16:07:00,
2013-11-21 08:12:00,49.5,48.0,30.09,ENE,71,0.0,1.0,95,0.00,,,0.08,42.0,meteohub,2013-11-21 16:12:00,
2013-11-21 08:17:00,49.3,47.8,30.09,ENE,71,0.0,1.0,95,0.00,,,0.08,53.0,meteohub,2013-11-21 16:17:00,
2013-11-21 08:22:00,49.3,47.8,30.10,ENE,71,0.0,1.0,95,0.00,,,0.08,56.0,meteohub,2013-11-21 16:22:00,
2013-11-21 08:27:00,49.1,47.5,30.10,ENE,71,0.0,1.0,94,0.00,,,0.08,60.0,meteohub,2013-11-21 16:27:00,
2013-11-21 08:32:00,48.9,47.3,30.10,ENE,71,0.0,1.0,94,0.00,,,0.08,46.0,meteohub,2013-11-21 16:32:00,
2013-11-21 08:37:00,48.7,47.1,30.10,ENE,71,0.0,2.0,94,0.00,,,0.08,47.0,meteohub,2013-11-21 16:37:00,
2013-11-21 08:42:00,47.8,45.9,30.10,ENE,71,0.0,2.0,93,0.00,,,0.08,54.0,meteohub,2013-11-21 16:42:00,
2013-11-21 08:47:00,47.5,45.5,30.10,ENE,71,0.0,2.0,93,0.00,,,0.08,69.0,meteohub,2013-11-21 16:47:00,
2013-11-21 08:52:00,47.3,45.3,30.10,ENE,71,0.0,2.0,93,0.00,,,0.08,76.0,meteohub,2013-11-21 16:52:00,
2013-11-21 08:57:00,47.1,45.1,30.10,ENE,71,0.0,1.0,93,0.00,,,0.08,84.0,meteohub,2013-11-21 16:57:00,
2013-11-21 09:02:00,47.1,45.0,30.10,ENE,71,0.0,1.0,92,0.00,,,0.08,84.0,meteohub,2013-11-21 17:02:00,
2013-11-21 09:07:00,47.1,45.0,30.10,ENE,71,0.0,1.0,92,0.00,,,0.08,97.0,meteohub,2013-11-21 17:07:00,
2013-11-21 09:12:00,47.5,45.0,30.10,ENE,71,0.0,1.0,91,0.00,,,0.08,132.0,meteohub,2013-11-21 17:12:00,
2013-11-21 09:17:00,47.7,44.6,30.10,ENE,71,0.0,1.0,89,0.00,,,0.08,139.0,meteohub,2013-11-21 17:17:00,
2013-11-21 09:22:00,48.0,44.1,30.10,ENE,71,2.0,2.0,86,0.00,,,0.08,123.0,meteohub,2013-11-21 17:22:00,
2013-11-21 09:27:00,48.6,43.7,30.10,ENE,71,0.0,3.0,83,0.00,,,0.08,137.0,meteohub,2013-11-21 17:27:00,
2013-11-21 09:32:00,48.9,43.7,30.10,ENE,71,0.0,3.0,82,0.00,,,0.08,144.0,meteohub,2013-11-21 17:32:00,
2013-11-21 09:37:00,49.3,43.3,30.10,ENE,71,2.0,3.0,80,0.00,,,0.08,237.0,meteohub,2013-11-21 17:37:00,
2013-11-21 09:42:00,49.5,42.8,30.10,ENE,71,1.0,3.0,78,0.00,,,0.08,97.0,meteohub,2013-11-21 17:42:00,
2013-11-21 09:47:00,49.6,43.0,30.10,ENE,71,1.0,3.0,78,0.00,,,0.08,120.0,meteohub,2013-11-21 17:47:00,
2013-11-21 09:52:00,49.8,42.3,30.11,ENE,71,1.0,3.0,75,0.00,,,0.08,193.0,meteohub,2013-11-21 17:52:00,
2013-11-21 09:57:00,50.0,41.7,30.11,ENE,71,1.0,3.0,73,0.00,,,0.08,267.0,meteohub,2013-11-21 17:57:00,
2013-11-21 10:02:00,50.4,41.7,30.10,ENE,71,0.0,3.0,72,0.00,,,0.08,424.0,meteohub,2013-11-21 18:02:00,
2013-11-21 10:07:00,50.7,42.1,30.10,ENE,71,0.0,3.0,72,0.00,,,0.08,411.0,meteohub,2013-11-21 18:07:00,
2013-11-21 10:12:00,51.3,41.9,30.10,ENE,71,0.0,3.0,70,0.00,,,0.08,387.0,meteohub,2013-11-21 18:12:00,
2013-11-21 10:17:00,51.6,41.7,30.10,ENE,71,1.0,2.0,69,0.00,,,0.08,429.0,meteohub,2013-11-21 18:17:00,
2013-11-21 10:22:00,52.2,42.3,30.10,ENE,71,0.0,3.0,69,0.00,,,0.08,418.0,meteohub,2013-11-21 18:22:00,
2013-11-21 10:27:00,52.5,41.9,30.10,ENE,70,1.0,3.0,67,0.00,,,0.08,438.0,meteohub,2013-11-21 18:27:00,
2013-11-21 10:32:00,52.9,41.4,30.10,ENE,70,0.0,4.0,65,0.00,,,0.08,455.0,meteohub,2013-11-21 18:32:00,
2013-11-21 10:37:00,53.1,41.5,30.10,ENE,63,0.0,4.0,65,0.00,,,0.08,461.0,meteohub,2013-11-21 18:37:00,
2013-11-21 10:42:00,53.4,41.9,30.10,ENE,63,0.0,4.0,65,0.00,,,0.08,457.0,meteohub,2013-11-21 18:42:00,
2013-11-21 10:47:00,53.8,41.9,30.10,ENE,63,2.0,4.0,64,0.00,,,0.08,459.0,meteohub,2013-11-21 18:47:00,
2013-11-21 10:52:00,54.1,42.3,30.09,ENE,75,1.0,4.0,64,0.00,,,0.08,461.0,meteohub,2013-11-21 18:52:00,
2013-11-21 10:57:00,54.3,42.1,30.09,ENE,76,1.0,4.0,63,0.00,,,0.08,452.0,meteohub,2013-11-21 18:57:00,
2013-11-21 11:02:00,54.7,42.8,30.09,WNW,285,1.0,4.0,64,0.00,,,0.08,454.0,meteohub,2013-11-21 19:02:00,
2013-11-21 11:07:00,55.0,42.3,30.09,NW,313,1.0,4.0,62,0.00,,,0.08,476.0,meteohub,2013-11-21 19:07:00,
2013-11-21 11:12:00,55.2,42.1,30.09,North,11,1.0,4.0,61,0.00,,,0.08,501.0,meteohub,2013-11-21 19:12:00,
2013-11-21 11:17:00,55.8,41.7,30.08,WSW,258,1.0,4.0,59,0.00,,,0.08,519.0,meteohub,2013-11-21 19:17:00,
2013-11-21 11:22:00,56.1,41.9,30.08,WSW,240,1.0,6.0,59,0.00,,,0.08,536.0,meteohub,2013-11-21 19:22:00,
2013-11-21 11:27:00,56.5,41.9,30.08,East,91,2.0,6.0,58,0.00,,,0.08,515.0,meteohub,2013-11-21 19:27:00,
2013-11-21 11:32:00,56.5,41.9,30.08,SE,137,0.0,5.0,58,0.00,,,0.08,538.0,meteohub,2013-11-21 19:32:00,
2013-11-21 11:37:00,56.7,42.1,30.07,ESE,107,0.0,5.0,58,0.00,,,0.08,548.0,meteohub,2013-11-21 19:37:00,
2013-11-21 11:42:00,57.0,41.0,30.07,East,86,0.0,5.0,55,0.00,,,0.08,547.0,meteohub,2013-11-21 19:42:00,
2013-11-21 11:47:00,57.2,40.6,30.07,ENE,69,2.0,5.0,54,0.00,,,0.08,548.0,meteohub,2013-11-21 19:47:00,
2013-11-21 11:52:00,57.6,39.0,30.07,West,265,6.0,6.0,50,0.00,,,0.08,547.0,meteohub,2013-11-21 19:52:00,
2013-11-21 11:57:00,57.6,36.3,30.07,South,171,0.0,10.0,45,0.00,,,0.08,545.0,meteohub,2013-11-21 19:57:00,
2013-11-21 12:02:00,57.7,36.5,30.07,West,268,3.0,10.0,45,0.00,,,0.08,540.0,meteohub,2013-11-21 20:02:00,
2013-11-21 12:07:00,58.1,35.8,30.06,South,171,4.0,10.0,43,0.00,,,0.08,531.0,meteohub,2013-11-21 20:07:00,
2013-11-21 12:12:00,58.3,32.7,30.06,ESE,121,0.0,8.0,38,0.00,,,0.08,531.0,meteohub,2013-11-21 20:12:00,
2013-11-21 12:18:00,58.5,35.4,30.06,SW,215,4.0,8.0,42,0.00,,,0.08,536.0,meteohub,2013-11-21 20:18:00,
2013-11-21 12:23:00,58.6,33.8,30.06,ESE,115,2.0,6.0,39,0.00,,,0.08,538.0,meteohub,2013-11-21 20:23:00,
2013-11-21 12:28:00,59.0,34.7,30.06,SSE,157,0.0,6.0,40,0.00,,,0.08,526.0,meteohub,2013-11-21 20:28:00,
2013-11-21 12:33:00,59.4,35.1,30.06,ESE,116,0.0,6.0,40,0.00,,,0.08,517.0,meteohub,2013-11-21 20:33:00,
2013-11-21 12:38:00,59.5,34.5,30.06,East,84,3.0,6.0,39,0.00,,,0.08,515.0,meteohub,2013-11-21 20:38:00,
2013-11-21 12:43:00,59.4,33.8,30.06,SW,226,2.0,9.0,38,0.00,,,0.08,513.0,meteohub,2013-11-21 20:43:00,
2013-11-21 12:48:00,59.4,31.6,30.06,South,191,3.0,11.0,35,0.00,,,0.08,506.0,meteohub,2013-11-21 20:48:00,
2013-11-21 12:53:00,59.7,34.7,30.06,West,276,1.0,11.0,39,0.00,,,0.08,503.0,meteohub,2013-11-21 20:53:00,
2013-11-21 12:58:00,59.7,32.7,30.06,South,171,1.0,11.0,36,0.00,,,0.08,496.0,meteohub,2013-11-21 20:58:00,
2013-11-21 13:03:00,59.9,30.7,30.06,SSW,202,3.0,10.0,33,0.00,,,0.08,492.0,meteohub,2013-11-21 21:03:00,
2013-11-21 13:08:00,59.9,31.5,30.06,SSE,167,4.0,10.0,34,0.00,,,0.08,489.0,meteohub,2013-11-21 21:08:00,
2013-11-21 13:13:00,59.7,30.6,30.06,East,84,0.0,9.0,33,0.00,,,0.08,482.0,meteohub,2013-11-21 21:13:00,
2013-11-21 13:18:00,59.5,28.9,30.06,North,11,1.0,8.0,31,0.00,,,0.08,476.0,meteohub,2013-11-21 21:18:00,
2013-11-21 13:23:00,59.5,31.1,30.06,ENE,59,3.0,8.0,34,0.00,,,0.08,469.0,meteohub,2013-11-21 21:23:00,
2013-11-21 13:28:00,59.7,28.2,30.06,South,177,1.0,8.0,30,0.00,,,0.08,462.0,meteohub,2013-11-21 21:28:00,
2013-11-21 13:33:00,59.7,28.2,30.06,ENE,58,2.0,9.0,30,0.00,,,0.08,454.0,meteohub,2013-11-21 21:33:00,
2013-11-21 13:38:00,60.1,30.2,30.06,NW,319,2.0,9.0,32,0.00,,,0.08,446.0,meteohub,2013-11-21 21:38:00,
2013-11-21 13:43:00,60.3,31.8,30.06,SSE,161,2.0,9.0,34,0.00,,,0.08,439.0,meteohub,2013-11-21 21:43:00,
2013-11-21 13:48:00,60.4,27.1,30.06,ENE,63,10.0,10.0,28,0.00,,,0.08,432.0,meteohub,2013-11-21 21:48:00,
2013-11-21 13:53:00,59.7,26.6,30.06,ENE,71,5.0,11.0,28,0.00,,,0.08,424.0,meteohub,2013-11-21 21:53:00,
2013-11-21 13:58:00,59.5,28.9,30.06,NNW,330,3.0,11.0,31,0.00,,,0.08,415.0,meteohub,2013-11-21 21:58:00,
2013-11-21 14:03:00,59.7,27.3,30.06,East,79,5.0,11.0,29,0.00,,,0.08,406.0,meteohub,2013-11-21 22:03:00,
2013-11-21 14:08:00,59.9,29.1,30.06,East,101,1.0,11.0,31,0.00,,,0.08,396.0,meteohub,2013-11-21 22:08:00,
2013-11-21 14:14:00,59.9,25.9,30.06,East,83,5.0,9.0,27,0.00,,,0.08,388.0,meteohub,2013-11-21 22:14:00,
2013-11-21 14:19:00,59.7,25.7,30.06,ENE,70,8.0,10.0,27,0.00,,,0.08,376.0,meteohub,2013-11-21 22:19:00,
2013-11-21 14:24:00,59.5,25.5,30.06,East,93,2.0,13.0,27,0.00,,,0.08,364.0,meteohub,2013-11-21 22:24:00,
2013-11-21 14:29:00,59.5,26.4,30.05,ENE,69,4.0,13.0,28,0.00,,,0.08,355.0,meteohub,2013-11-21 22:29:00,
2013-11-21 14:34:00,59.7,25.7,30.06,ENE,71,3.0,13.0,27,0.00,,,0.08,343.0,meteohub,2013-11-21 22:34:00,
2013-11-21 14:39:00,59.7,26.6,30.05,SW,224,4.0,10.0,28,0.00,,,0.08,332.0,meteohub,2013-11-21 22:39:00,
2013-11-21 14:44:00,59.7,26.6,30.05,ENE,69,1.0,10.0,28,0.00,,,0.08,322.0,meteohub,2013-11-21 22:44:00,
2013-11-21 14:49:00,59.7,24.8,30.05,East,86,1.0,10.0,26,0.00,,,0.08,309.0,meteohub,2013-11-21 22:49:00,
2013-11-21 14:54:00,59.7,26.6,30.05,South,175,4.0,12.0,28,0.00,,,0.08,297.0,meteohub,2013-11-21 22:54:00,
2013-11-21 14:59:00,59.9,25.0,30.05,East,86,9.0,12.0,26,0.00,,,0.08,285.0,meteohub,2013-11-21 22:59:00,
2013-11-21 15:04:00,59.7,24.8,30.05,West,259,3.0,12.0,26,0.00,,,0.08,274.0,meteohub,2013-11-21 23:04:00,
2013-11-21 15:09:00,59.9,25.9,30.05,SSE,148,3.0,11.0,27,0.00,,,0.08,258.0,meteohub,2013-11-21 23:09:00,
2013-11-21 15:14:00,59.7,24.8,30.05,East,89,2.0,11.0,26,0.00,,,0.08,243.0,meteohub,2013-11-21 23:14:00,
2013-11-21 15:19:00,59.7,25.7,30.05,NNW,344,4.0,10.0,27,0.00,,,0.08,229.0,meteohub,2013-11-21 23:19:00,
2013-11-21 15:24:00,59.7,24.8,30.05,ENE,63,7.0,10.0,26,0.00,,,0.08,211.0,meteohub,2013-11-21 23:24:00,
2013-11-21 15:29:00,59.5,24.6,30.06,ENE,71,5.0,10.0,26,0.00,,,0.08,197.0,meteohub,2013-11-21 23:29:00,
2013-11-21 15:34:00,59.5,24.6,30.05,WNW,297,5.0,11.0,26,0.00,,,0.08,179.0,meteohub,2013-11-21 23:34:00,
2013-11-21 15:39:00,59.4,25.3,30.05,SSE,166,2.0,11.0,27,0.00,,,0.08,165.0,meteohub,2013-11-21 23:39:00,
2013-11-21 15:44:00,59.4,24.4,30.05,East,90,3.0,11.0,26,0.00,,,0.08,149.0,meteohub,2013-11-21 23:44:00,
2013-11-21 15:49:00,59.4,24.4,30.05,West,259,1.0,11.0,26,0.00,,,0.08,134.0,meteohub,2013-11-21 23:49:00,
2013-11-21 15:54:00,59.2,24.3,30.05,SSW,198,0.0,9.0,26,0.00,,,0.08,109.0,meteohub,2013-11-21 23:54:00,
2013-11-21 15:59:00,59.4,26.2,30.06,East,86,2.0,15.0,28,0.00,,,0.08,90.0,meteohub,2013-11-21 23:59:00,
2013-11-21 16:04:00,59.0,25.0,30.06,ENE,57,5.0,15.0,27,0.00,,,0.08,84.0,meteohub,2013-11-22 00:04:00,
2013-11-21 16:10:00,58.6,23.9,30.05,ENE,69,3.0,12.0,26,0.00,,,0.00,74.0,meteohub,2013-11-22 00:10:00,
2013-11-21 16:15:00,58.5,24.6,30.06,ENE,77,3.0,13.0,27,0.00,,,0.00,60.0,meteohub,2013-11-22 00:15:00,
2013-11-21 16:20:00,58.5,24.6,30.06,East,86,5.0,13.0,27,0.00,,,0.00,49.0,meteohub,2013-11-22 00:20:00,
2013-11-21 16:25:00,58.3,24.4,30.06,ENE,69,5.0,13.0,27,0.00,,,0.00,37.0,meteohub,2013-11-22 00:25:00,
2013-11-21 16:30:00,58.1,25.2,30.06,ESE,104,1.0,10.0,28,0.00,,,0.00,28.0,meteohub,2013-11-22 00:30:00,
2013-11-21 16:35:00,57.9,25.9,30.06,SE,146,4.0,11.0,29,0.00,,,0.00,23.0,meteohub,2013-11-22 00:35:00,
2013-11-21 16:40:00,57.7,26.4,30.06,WNW,302,4.0,11.0,30,0.00,,,0.00,16.0,meteohub,2013-11-22 00:40:00,
2013-11-21 16:45:00,57.4,26.2,30.06,ESE,105,1.0,6.0,30,0.00,,,0.00,7.0,meteohub,2013-11-22 00:45:00,
2013-11-21 16:50:00,57.0,25.9,30.06,East,84,1.0,6.0,30,0.00,,,0.00,5.0,meteohub,2013-11-22 00:50:00,
2013-11-21 16:55:00,56.8,27.3,30.06,ESE,116,2.0,9.0,32,0.00,,,0.00,0.0,meteohub,2013-11-22 00:55:00,
2013-11-21 17:00:00,56.8,26.6,30.06,ENE,75,7.0,12.0,31,0.00,,,0.00,0.0,meteohub,2013-11-22 01:00:00,
2013-11-21 17:05:00,56.7,26.4,30.06,South,189,5.0,12.0,31,0.00,,,0.00,0.0,meteohub,2013-11-22 01:05:00,
2013-11-21 17:10:00,56.5,27.0,30.06,WSW,247,1.0,12.0,32,0.00,,,0.00,0.0,meteohub,2013-11-22 01:10:00,
2013-11-21 17:15:00,56.5,27.0,30.06,ENE,63,2.0,12.0,32,0.00,,,0.00,0.0,meteohub,2013-11-22 01:15:00,
2013-11-21 17:21:00,56.3,26.8,30.07,ENE,60,1.0,12.0,32,0.00,,,0.00,0.0,meteohub,2013-11-22 01:21:00,
2013-11-21 17:26:00,56.1,27.3,30.06,SW,215,3.0,12.0,33,0.00,,,0.00,0.0,meteohub,2013-11-22 01:26:00,
2013-11-21 17:31:00,55.9,28.0,30.06,ENE,76,3.0,10.0,34,0.00,,,0.00,0.0,meteohub,2013-11-22 01:31:00,
2013-11-21 17:36:00,55.9,27.3,30.06,NW,310,10.0,10.0,33,0.00,,,0.00,0.0,meteohub,2013-11-22 01:36:00,
2013-11-21 17:41:00,55.9,27.3,30.07,East,80,6.0,15.0,33,0.00,,,0.00,0.0,meteohub,2013-11-22 01:41:00,
2013-11-21 17:46:00,55.9,28.8,30.07,South,175,2.0,15.0,35,0.00,,,0.00,0.0,meteohub,2013-11-22 01:46:00,
2013-11-21 17:51:00,55.9,28.0,30.07,East,96,2.0,15.0,34,0.00,,,0.00,0.0,meteohub,2013-11-22 01:51:00,
2013-11-21 17:56:00,55.8,28.6,30.06,WSW,240,2.0,10.0,35,0.00,,,0.00,0.0,meteohub,2013-11-22 01:56:00,
2013-11-21 18:01:00,55.8,28.6,30.07,ESE,103,3.0,10.0,35,0.00,,,0.00,0.0,meteohub,2013-11-22 02:01:00,
2013-11-21 18:06:00,55.8,28.6,30.07,WNW,297,0.0,15.0,35,0.00,,,0.00,0.0,meteohub,2013-11-22 02:06:00,
2013-11-21 18:08:00,55.8,27.9,30.07,West,262,0.0,15.0,34,0.00,,,0.00,0.0,meteohub,2013-11-22 02:08:00,
2013-11-21 18:09:00,55.8,27.9,30.07,WSW,241,3.0,15.0,34,0.00,,,0.00,0.0,meteohub,2013-11-22 02:09:00,
2013-11-21 18:10:00,55.6,27.7,30.07,ENE,77,0.0,15.0,34,0.00,,,0.00,0.0,meteohub,2013-11-22 02:10:00,
2013-11-21 18:12:00,55.6,28.4,30.07,SSE,159,2.0,15.0,35,0.00,,,0.00,0.0,meteohub,2013-11-22 02:12:00,
2013-11-21 18:16:00,55.6,28.4,30.07,East,94,1.0,11.0,35,0.00,,,0.00,0.0,meteohub,2013-11-22 02:16:00,
2013-11-21 18:21:00,55.4,28.9,30.08,ESE,103,4.0,11.0,36,0.00,,,0.00,0.0,meteohub,2013-11-22 02:21:00,
2013-11-21 18:26:00,55.4,28.9,30.08,South,171,0.0,11.0,36,0.00,,,0.00,0.0,meteohub,2013-11-22 02:26:00,
2013-11-21 18:31:00,55.4,28.2,30.08,WNW,287,10.0,10.0,35,0.00,,,0.00,0.0,meteohub,2013-11-22 02:31:00,
2013-11-21 18:36:00,55.2,28.8,30.08,ENE,75,2.0,11.0,36,0.00,,,0.00,0.0,meteohub,2013-11-22 02:36:00,
2013-11-21 18:41:00,55.2,28.8,30.09,ENE,65,10.0,11.0,36,0.00,,,0.00,0.0,meteohub,2013-11-22 02:41:00,
2013-11-21 18:47:00,55.2,28.0,30.09,SE,140,0.0,11.0,35,0.00,,,0.00,0.0,meteohub,2013-11-22 02:47:00,
2013-11-21 18:52:00,55.0,27.9,30.09,NW,305,6.0,11.0,35,0.00,,,0.00,0.0,meteohub,2013-11-22 02:52:00,
2013-11-21 18:57:00,55.0,28.6,30.09,NNW,342,7.0,11.0,36,0.00,,,0.00,0.0,meteohub,2013-11-22 02:57:00,
2013-11-21 19:02:00,55.0,28.6,30.09,East,90,2.0,8.0,36,0.00,,,0.00,0.0,meteohub,2013-11-22 03:02:00,
2013-11-21 19:07:00,55.0,27.9,30.08,WNW,296,2.0,8.0,35,0.00,,,0.00,0.0,meteohub,2013-11-22 03:07:00,
2013-11-21 19:12:00,54.9,27.7,30.08,SW,233,1.0,10.0,35,0.00,,,0.00,0.0,meteohub,2013-11-22 03:12:00,
2013-11-21 19:17:00,54.9,27.0,30.08,WNW,283,3.0,10.0,34,0.00,,,0.00,0.0,meteohub,2013-11-22 03:17:00,
2013-11-21 19:22:00,55.0,26.4,30.08,North,0,2.0,13.0,33,0.00,,,0.00,0.0,meteohub,2013-11-22 03:22:00,
2013-11-21 19:27:00,54.9,27.0,30.09,NNW,335,5.0,13.0,34,0.00,,,0.00,0.0,meteohub,2013-11-22 03:27:00,
2013-11-21 19:32:00,54.7,26.8,30.09,South,190,2.0,13.0,34,0.00,,,0.00,0.0,meteohub,2013-11-22 03:32:00,
2013-11-21 19:37:00,54.5,26.8,30.09,SW,229,0.0,11.0,34,0.00,,,0.00,0.0,meteohub,2013-11-22 03:37:00,
2013-11-21 19:42:00,54.3,26.6,30.09,SW,219,4.0,11.0,34,0.00,,,0.00,0.0,meteohub,2013-11-22 03:42:00,
2013-11-21 19:47:00,54.3,26.6,30.10,East,84,3.0,10.0,34,0.00,,,0.00,0.0,meteohub,2013-11-22 03:47:00,
2013-11-21 19:52:00,54.5,26.8,30.10,SSW,210,1.0,10.0,34,0.00,,,0.00,0.0,meteohub,2013-11-22 03:52:00,
2013-11-21 19:57:00,54.5,26.8,30.10,WNW,287,3.0,10.0,34,0.00,,,0.00,0.0,meteohub,2013-11-22 03:57:00,
2013-11-21 20:02:00,54.5,26.1,30.10,ESE,119,4.0,10.0,33,0.00,,,0.00,0.0,meteohub,2013-11-22 04:02:00,
2013-11-21 20:07:00,54.5,26.8,30.10,SSW,209,3.0,10.0,34,0.00,,,0.00,0.0,meteohub,2013-11-22 04:07:00,
2013-11-21 20:12:00,54.5,26.1,30.10,NE,46,2.0,10.0,33,0.00,,,0.00,0.0,meteohub,2013-11-22 04:12:00,
2013-11-21 20:17:00,54.7,26.1,30.10,WSW,248,1.0,10.0,33,0.00,,,0.00,0.0,meteohub,2013-11-22 04:17:00,
2013-11-21 20:22:00,54.7,25.3,30.11,East,90,5.0,12.0,32,0.00,,,0.00,0.0,meteohub,2013-11-22 04:22:00,
2013-11-21 20:27:00,54.7,26.1,30.11,ENE,67,3.0,13.0,33,0.00,,,0.00,0.0,meteohub,2013-11-22 04:27:00,
2013-11-21 20:32:00,54.5,26.8,30.11,ESE,110,0.0,13.0,34,0.00,,,0.00,0.0,meteohub,2013-11-22 04:32:00,
2013-11-21 20:37:00,54.1,26.4,30.11,SSW,199,1.0,13.0,34,0.00,,,0.00,0.0,meteohub,2013-11-22 04:37:00,
2013-11-21 20:42:00,54.1,25.7,30.11,NE,55,6.0,7.0,33,0.00,,,0.00,0.0,meteohub,2013-11-22 04:42:00,
2013-11-21 20:47:00,54.0,25.5,30.11,NE,47,3.0,14.0,33,0.00,,,0.00,0.0,meteohub,2013-11-22 04:47:00,
2013-11-21 20:52:00,54.0,25.5,30.11,ENE,64,4.0,14.0,33,0.00,,,0.00,0.0,meteohub,2013-11-22 04:52:00,
2013-11-21 20:57:00,54.0,26.2,30.12,SSE,155,4.0,14.0,34,0.00,,,0.00,0.0,meteohub,2013-11-22 04:57:00,
2013-11-21 21:01:00,54.0,25.5,30.12,East,96,3.0,9.0,33,0.00,,,0.00,0.0,meteohub,2013-11-22 05:01:00,
2013-11-21 21:02:00,54.0,25.5,30.12,ENE,74,1.0,9.0,33,0.00,,,0.00,0.0,meteohub,2013-11-22 05:02:00,
2013-11-21 21:04:00,54.0,25.5,30.12,ENE,71,1.0,9.0,33,0.00,,,0.00,0.0,meteohub,2013-11-22 05:04:00,
2013-11-21 21:07:00,54.0,25.5,30.12,East,84,2.0,8.0,33,0.00,,,0.00,0.0,meteohub,2013-11-22 05:07:00,
2013-11-21 21:12:00,53.8,25.3,30.12,ENE,73,2.0,9.0,33,0.00,,,0.00,0.0,meteohub,2013-11-22 05:12:00,
2013-11-21 21:17:00,53.6,25.2,30.13,ENE,69,3.0,9.0,33,0.00,,,0.00,0.0,meteohub,2013-11-22 05:17:00,
2013-11-21 21:22:00,53.4,25.0,30.13,East,82,3.0,9.0,33,0.00,,,0.00,0.0,meteohub,2013-11-22 05:22:00,
2013-11-21 21:27:00,53.4,25.0,30.13,ENE,69,3.0,9.0,33,0.00,,,0.00,0.0,meteohub,2013-11-22 05:27:00,
2013-11-21 21:32:00,53.4,24.3,30.13,ENE,63,3.0,9.0,32,0.00,,,0.00,0.0,meteohub,2013-11-22 05:32:00,
2013-11-21 21:37:00,53.4,23.5,30.13,ENE,69,1.0,9.0,31,0.00,,,0.00,0.0,meteohub,2013-11-22 05:37:00,
2013-11-21 21:42:00,53.6,24.4,30.13,ENE,58,5.0,9.0,32,0.00,,,0.00,0.0,meteohub,2013-11-22 05:42:00,
2013-11-21 21:47:00,53.6,23.7,30.13,ENE,74,3.0,10.0,31,0.00,,,0.00,0.0,meteohub,2013-11-22 05:47:00,
2013-11-21 21:52:00,53.4,24.3,30.13,SSW,203,5.0,11.0,32,0.00,,,0.00,0.0,meteohub,2013-11-22 05:52:00,
2013-11-21 21:57:00,53.2,24.1,30.13,NW,304,3.0,11.0,32,0.00,,,0.00,0.0,meteohub,2013-11-22 05:57:00,
2013-11-21 22:02:00,53.2,24.1,30.13,ENE,69,3.0,8.0,32,0.00,,,0.00,0.0,meteohub,2013-11-22 06:02:00,
2013-11-21 22:07:00,53.1,23.2,30.13,East,92,1.0,8.0,31,0.00,,,0.00,0.0,meteohub,2013-11-22 06:07:00,
2013-11-21 22:12:00,53.1,23.9,30.12,East,100,1.0,9.0,32,0.00,,,0.00,0.0,meteohub,2013-11-22 06:12:00,
2013-11-21 22:17:00,52.9,23.0,30.13,East,82,5.0,9.0,31,0.00,,,0.00,0.0,meteohub,2013-11-22 06:17:00,
2013-11-21 22:22:00,52.5,22.8,30.12,ENE,59,2.0,8.0,31,0.00,,,0.00,0.0,meteohub,2013-11-22 06:22:00,
2013-11-21 22:27:00,52.5,22.8,30.12,ENE,67,5.0,8.0,31,0.00,,,0.00,0.0,meteohub,2013-11-22 06:27:00,
2013-11-21 22:32:00,52.3,22.6,30.13,East,79,3.0,10.0,31,0.00,,,0.00,0.0,meteohub,2013-11-22 06:32:00,
2013-11-21 22:37:00,52.3,22.6,30.12,ENE,78,4.0,10.0,31,0.00,,,0.00,0.0,meteohub,2013-11-22 06:37:00,
2013-11-21 22:42:00,52.3,22.6,30.13,ENE,78,2.0,10.0,31,0.00,,,0.00,0.0,meteohub,2013-11-22 06:42:00,
2013-11-21 22:47:00,52.2,22.5,30.12,ENE,58,4.0,7.0,31,0.00,,,0.00,0.0,meteohub,2013-11-22 06:47:00,
2013-11-21 22:52:00,52.2,21.7,30.13,ENE,68,4.0,7.0,30,0.00,,,0.00,0.0,meteohub,2013-11-22 06:52:00,
2013-11-21 22:57:00,52.2,22.5,30.13,East,94,0.0,7.0,31,0.00,,,0.00,0.0,meteohub,2013-11-22 06:57:00,
2013-11-21 23:02:00,52.2,21.7,30.14,SSW,196,0.0,10.0,30,0.00,,,0.00,0.0,meteohub,2013-11-22 07:02:00,
2013-11-21 23:07:00,52.2,22.5,30.14,ESE,110,1.0,13.0,31,0.00,,,0.00,0.0,meteohub,2013-11-22 07:07:00,
2013-11-21 23:12:00,52.2,21.7,30.13,East,93,2.0,13.0,30,0.00,,,0.00,0.0,meteohub,2013-11-22 07:12:00,
2013-11-21 23:17:00,52.2,20.8,30.13,East,95,3.0,13.0,29,0.00,,,0.00,0.0,meteohub,2013-11-22 07:17:00,
2013-11-21 23:22:00,52.2,21.7,30.14,East,90,2.0,11.0,30,0.00,,,0.00,0.0,meteohub,2013-11-22 07:22:00,
2013-11-21 23:27:00,52.2,20.1,30.14,East,86,6.0,11.0,28,0.00,,,0.00,0.0,meteohub,2013-11-22 07:27:00,
2013-11-21 23:32:00,52.3,21.0,30.14,ENE,65,7.0,11.0,29,0.00,,,0.00,0.0,meteohub,2013-11-22 07:32:00,
2013-11-21 23:37:00,52.5,20.3,30.13,NE,55,0.0,11.0,28,0.00,,,0.00,0.0,meteohub,2013-11-22 07:37:00,
2013-11-21 23:42:00,52.5,21.2,30.14,SE,139,1.0,11.0,29,0.00,,,0.00,0.0,meteohub,2013-11-22 07:42:00,
2013-11-21 23:47:00,52.5,21.2,30.14,ENE,69,7.0,10.0,29,0.00,,,0.00,0.0,meteohub,2013-11-22 07:47:00,
2013-11-21 23:52:00,52.5,19.4,30.14,ENE,68,1.0,10.0,27,0.00,,,0.00,0.0,meteohub,2013-11-22 07:52:00,
2013-11-21 23:57:00,52.5,20.3,30.13,NE,54,7.0,12.0,28,0.00,,,0.00,0.0,meteohub,2013-11-22 07:57:00,